Regional Weather Roundup
Issued by NWS

Home | Current Version | Previous Version | Text Only | Print | Product List | Glossary On
Versions: 1 2 3 4 5 6 7 8 9 10 11 12 13 14 15 16 17 18 19 20 21 22 23 24 25 26 27 28 29 30 31 32 33 34 35 36 37 38 39 40 41 42 43 44 45 46 47 48 49 50
000
ASUS43 KOAX 302010
RWRNE

WEATHER ROUNDUP FOR NEBRASKA
NATIONAL WEATHER SERVICE OMAHA NE
300 PM CDT TUE JUN 30 2015

NOTES: SATELLITE DATA IS BEING USED TO AUGMENT CLOUD COVER ABOVE
       12000 FEET.
       "FAIR" INDICATES FEW OR NO CLOUDS BELOW 12,000 FEET WITH NO
       SIGNIFICANT WEATHER AND/OR OBSTRUCTIONS TO VISIBILITY.

  * THESE STATIONS DO NOT REPORT WEATHER SUCH AS RAIN...SNOW OR FOG.

NEZ001>004-019>022-054>056-302100-
NEBRASKA PANHANDLE

CITY           SKY/WX    TMP DP  RH WIND       PRES   REMARKS
SCOTTSBLUFF    MOSUNNY   96  49  20 VRB3      29.96F HX  93
ALLIANCE       MOSUNNY   93  54  26 SW12      29.96F HX  91
CHADRON        MOSUNNY   93  64  38 NE5       29.90F HX  94
KIMBALL          N/A    N/A N/A N/A MISG        N/A
SIDNEY         MOSUNNY   90  53  28 S3        30.01F
$$

NEZ057>060-069>072-079>082-302100-
SOUTHWEST NEBRASKA

CITY           SKY/WX    TMP DP  RH WIND       PRES   REMARKS
NORTH PLATTE   MOSUNNY   94  60  32 SW10      29.90F HX  94
IMPERIAL       SUNNY     98  50  19 SW13G21   29.94F HX  95
LEXINGTON      MOSUNNY   96  56  25 W6        29.90F HX  94
MCCOOK         SUNNY     98  52  21 W7        29.90F HX  95
OGALLALA       MOSUNNY   95  52  23 W10       29.93F HX  92
$$

NEZ005>010-023>029-035>040-094-302100-
NORTH CENTRAL NEBRASKA

CITY           SKY/WX    TMP DP  RH WIND       PRES   REMARKS
VALENTINE      CLOUDY    83  65  54 E12       29.89F
AINSWORTH      CLOUDY    82  65  57 SE13      29.90F
BROKEN BOW     PTSUNNY   91  66  43 SW9       29.89F HX  93
O`NEILL        CLOUDY    80  64  56 E12       29.92F
ORD            CLOUDY    89  67  47 SE9       29.87F HX  92
THEDFORD       CLOUDY    93  60  32 SW8       29.91F HX  92
$$

NEZ041-046>049-061>064-073>077-083>087-302100-
SOUTH CENTRAL NEBRASKA

CITY           SKY/WX    TMP DP  RH WIND       PRES   REMARKS
GRAND ISLAND   PTSUNNY   91  68  46 E10       29.89F HX  95
AURORA         PTSUNNY   88  68  52 SE13      29.89F HX  92
HASTINGS       PTSUNNY   92  63  38 SW9       29.89F HX  93
HEBRON         PTSUNNY   94  53  24 W9        29.87F HX  91
HOLDREGE       MOSUNNY   92  54  27 W7        29.90F HX  90
KEARNEY *      MOSUNNY   93  63  36 SW8       29.89F HX  94
YORK           PTSUNNY   88  68  51 SE13      29.89F HX  91
$$

NEZ011>018-030>034-042>045-302100-
NORTHEAST NEBRASKA

CITY           SKY/WX    TMP DP  RH WIND       PRES   REMARKS
NORFOLK        CLOUDY    73  65  75 E6        29.92F
ALBION         CLOUDY    82  63  51 E14       29.91F
BLAIR          CLOUDY    75  64  70 NE3       29.91F
COLUMBUS *     CLOUDY   N/A N/A N/A MISG        N/A
FREMONT        CLOUDY    76  63  62 SE3       29.92F
TEKAMAH        LGT RAIN  74  68  81 NE9       29.91S
WAYNE          CLOUDY    73  68  84 CALM      29.94R
$$

NEZ050>053-065>068-078-088>093-302100-
SOUTHEAST NEBRASKA

CITY           SKY/WX    TMP DP  RH WIND       PRES   REMARKS
LINCOLN        PTSUNNY   83  66  56 E15       29.91F HAZE
OMAHA EPPLEY   LGT RAIN  77  65  66 CALM      29.90F
BEATRICE       MOSUNNY   89  67  48 E8        29.89F HX  93
FALLS CITY     CLOUDY    81  68  64 NE10      29.92F
NEBRASKA CITY  CLOUDY    79  61  54 E6        29.92F
PLATTSMOUTH    CLOUDY    77  65  65 E3        29.91F
$$

NEZ044-045-051>053-067-302100-
OMAHA AREA

CITY           SKY/WX    TMP DP  RH WIND       PRES   REMARKS
OMAHA EPPLEY   LGT RAIN  77  65  66 CALM      29.90F
BLAIR          CLOUDY    75  64  70 NE3       29.91F
FREMONT        CLOUDY    76  63  62 SE3       29.92F
MILLARD        CLOUDY    79  65  63 CALM      29.91F
OFFUTT AFB     CLOUDY    78  67  69 NE3       29.90F
PLATTSMOUTH    CLOUDY    77  65  65 E3        29.91F
WAHOO          FAIR      79  62  56 E6        29.92S
$$


USA.gov is the U.S. government's official web portal to all federal, state and local government web resources and services.